TimeEST,TemperatureF,Dew PointF,Humidity,Sea Level PressureIn,VisibilityMPH,Wind Direction,Wind SpeedMPH,Gust SpeedMPH,PrecipitationIn,Events,Conditions,WindDirDegrees,DateUTC
12:53 AM,57.9,55.9,93,29.97,5.0,WSW,3.5,-,N/A,,Mostly Cloudy,250,2012-12-10 05:53:00
1:53 AM,57.9,55.9,93,29.94,4.0,WSW,3.5,-,0.01,,Overcast,250,2012-12-10 06:53:00
2:53 AM,57.9,57.0,97,29.93,5.0,SW,5.8,-,N/A,,Overcast,230,2012-12-10 07:53:00
3:53 AM,59.0,57.0,93,29.91,6.0,WSW,6.9,-,N/A,,Overcast,240,2012-12-10 08:53:00
4:53 AM,59.0,57.0,93,29.88,6.0,WSW,9.2,-,N/A,,Overcast,240,2012-12-10 09:53:00
5:53 AM,57.9,57.0,97,29.87,5.0,SSW,6.9,-,N/A,,Overcast,210,2012-12-10 10:53:00
6:53 AM,57.9,55.9,93,29.86,5.0,SW,5.8,-,N/A,,Overcast,230,2012-12-10 11:53:00
7:53 AM,57.9,55.9,93,29.84,6.0,SSW,9.2,-,N/A,,Overcast,200,2012-12-10 12:53:00
8:17 AM,57.2,55.4,94,29.85,8.0,SSW,9.2,-,N/A,,Overcast,210,2012-12-10 13:17:00
8:53 AM,59.0,55.9,90,29.83,10.0,SW,10.4,-,N/A,,Overcast,220,2012-12-10 13:53:00
9:53 AM,60.1,57.0,90,29.84,10.0,SW,13.8,-,0.00,,Overcast,220,2012-12-10 14:53:00
10:53 AM,61.0,57.0,87,29.83,10.0,SW,11.5,-,N/A,,Overcast,220,2012-12-10 15:53:00
11:53 AM,62.1,57.0,84,29.81,10.0,SW,9.2,-,N/A,,Overcast,220,2012-12-10 16:53:00
12:07 PM,62.6,57.2,82,29.81,10.0,SW,11.5,19.6,N/A,,Overcast,220,2012-12-10 17:07:00
12:53 PM,63.0,57.0,81,29.77,10.0,SSW,10.4,18.4,N/A,,Overcast,210,2012-12-10 17:53:00
1:24 PM,64.4,57.2,77,29.76,10.0,SW,11.5,19.6,N/A,,Overcast,220,2012-12-10 18:24:00
1:53 PM,64.9,57.0,75,29.73,10.0,SW,10.4,19.6,0.00,Rain,Light Rain,220,2012-12-10 18:53:00
2:38 PM,64.4,57.2,77,29.73,10.0,SSW,5.8,-,0.00,Rain,Light Rain,210,2012-12-10 19:38:00
2:53 PM,64.0,57.9,80,29.72,10.0,South,11.5,-,0.00,,Overcast,190,2012-12-10 19:53:00
3:01 PM,64.4,57.2,77,29.74,9.0,SW,9.2,-,0.01,Rain,Light Rain,220,2012-12-10 20:01:00
3:10 PM,62.6,57.2,82,29.76,1.2,West,10.4,18.4,0.12,Rain,Heavy Rain,280,2012-12-10 20:10:00
3:23 PM,62.6,59.0,88,29.75,1.8,WSW,8.1,-,0.23,Rain,Heavy Rain,240,2012-12-10 20:23:00
3:27 PM,62.6,59.0,88,29.75,3.0,SW,8.1,-,0.23,Rain,Rain,230,2012-12-10 20:27:00
3:53 PM,62.1,59.0,90,29.75,10.0,SW,6.9,-,0.24,Rain,Light Rain,230,2012-12-10 20:53:00
4:39 PM,60.8,59.0,94,29.76,5.0,SW,6.9,-,0.02,Rain,Light Rain,230,2012-12-10 21:39:00
4:53 PM,61.0,59.0,93,29.74,6.0,SSW,6.9,-,0.02,Rain,Light Rain,210,2012-12-10 21:53:00
5:53 PM,60.1,57.9,93,29.73,10.0,South,9.2,-,0.01,Rain,Light Rain,190,2012-12-10 22:53:00
6:11 PM,60.8,57.2,88,29.74,10.0,SSW,8.1,-,0.00,,Overcast,200,2012-12-10 23:11:00
6:53 PM,60.1,57.9,93,29.73,10.0,SSW,10.4,-,0.00,,Overcast,210,2012-12-10 23:53:00
7:53 PM,60.1,57.9,93,29.74,10.0,SSW,9.2,-,N/A,,Overcast,210,2012-12-11 00:53:00
8:53 PM,60.1,57.9,93,29.73,10.0,SSW,8.1,-,N/A,,Overcast,210,2012-12-11 01:53:00
9:53 PM,60.1,57.9,93,29.74,10.0,SSW,9.2,-,N/A,,Overcast,210,2012-12-11 02:53:00
10:53 PM,60.1,57.9,93,29.74,10.0,SW,10.4,19.6,N/A,,Overcast,220,2012-12-11 03:53:00
11:53 PM,60.1,57.0,90,29.75,10.0,SW,11.5,20.7,N/A,,Overcast,220,2012-12-11 04:53:00